Location: Gollag?dem
(17.0207°N, 80.7261°E)
Time: 15:41:22
(UTC+00:00)

ARIANE 5 DEB (SYLDA) - Pass Details

Date: 03 August 2024
Orbit: 639 x 35551 km, 5.4° (Epoch: 11 September)

Event Time Altitude Azimuth Distance (km) Brightness Sun altitude
Exits shadow 23:00:14 20° 194° (SSW) 1,550 4.2 -18.1°
Maximum altitude 23:01:17 22° 171° (S) 1,568 4.5 -17.9°
Drops below altitude 10° 23:05:53 10° 118° (ESE) 3,163 6.7 -16.9°
Sets 23:11:34 0° 104° (ESE) 5,775 8.4 -15.6°
